Location: Kellogg
(38.0159°N, 90.0546°W)
Time: 02:08:34
(UTC+00:00)

Transit 2A - Pass Details

Date: 16 September 2024
Orbit: 590 x 960 km, 66.7° (Epoch: 09 October)

Event Time Altitude Azimuth Distance (km) Brightness Sun altitude
Rises 02:19:03 0° 270° (W) 3,496 10.4 -25.8°
Reaches altitude 10° 02:23:20 10° 299° (WNW) 2,626 9.8 -26.6°
Maximum altitude 02:25:46 12° 323° (NW) 2,485 9.4 -27.0°
Drops below altitude 10° 02:28:16 10° 346° (NNW) 2,680 9.3 -27.5°
Sets 02:32:46 0° 15° (NNE) 3,649 9.7 -28.2°
